RH
97 98 98 98 97 98 98 92 91 89 95 97 99 99 99 96 94 94 94 99 99 98 95 89 64 62 73 92 87 46 51 49 70 79 82 79 81 76 76 68 68 85 74 69 70 69 78
93 95 98 96 93 95 95 94 93 95 98 98 94 96 84 98 99 96 95 95 95 96 97 94 71 72 85 94 50 46 48 60 57 77 80 81 74 60 56 57 70 66 71 87 69 67 66
88 86 80 86 86 89 89 90 89 88 88 91 86 86 87 87 97 99 99 96 95 85 86 77 72 86 88 72 49 36 46 57 57 69 79 71 74 84 54 52 42 56 68 93 93 81 69
88 86 87 87 85 88 87 86 86 86 88 87 87 89 91 94 97 99 97 98 95 75 54 57 66 86 82 52 53 46 44 45 56 67 69 67 77 78 50 46 47 75 74 91 90 91 84
75 72 73 76 74 78 84 83 82 82 81 87 88 87 87 92 95 96 75 71 70 59 51 62 87 82 91 48 60 50 50 38 40 46 55 50 64 74 53 62 66 77 89 93 100 80 84
75 76 77 73 75 73 72 75 80 81 84 82 81 80 88 86 89 90 92 72 55 70 64 86 75 77 68 56 40 50 44 35 38 43 62 56 60 80 72 63 89 87 91 87 92 93 82
74 72 73 75 74 75 75 76 74 73 76 80 81 84 87 86 84 85 88 90 69 78 75 75 70 63 42 47 34 39 39 37 40 52 80 72 79 86 81 67 58 57 68 76 73 82 78
75 74 74 73 73 74 72 72 72 72 71 70 72 78 82 87 85 70 86 98 64 60 79 59 61 53 40 41 43 40 33 51 59 69 70 82 92 67 58 60 57 59 69 74 58 62 83
75 73 70 76 74 72 74 71 73 73 72 74 72 72 72 74 66 79 72 86 71 62 84 59 52 56 53 45 46 47 40 49 58 64 74 79 65 58 63 62 64 59 60 63 54 44 76
71 70 73 68 72 75 69 73 71 66 71 66 77 76 77 70 64 68 78 66 65 72 89 70 47 39 45 43 53 36 37 43 53 62 61 69 52 60 64 60 58 72 53 53 51 48 64
73 72 69 70 68 67 68 69 72 69 73 67 74 74 78 76 75 86 62 53 72 69 97 36 40 30 43 46 40 43 35 44 54 56 60 64 57 64 64 58 54 62 59 62 55 57 54
73 70 70 70 68 70 68 69 67 66 66 66 65 72 68 72 75 58 68 69 80 82 86 53 46 45 59 47 39 42 46 40 41 52 51 50 43 49 51 49 50 54 62 68 78 95 98
69 74 74 75 72 75 79 77 76 68 68 69 71 70 63 70 77 61 68 75 97 92 46 48 58 50 53 58 51 50 56 62 62 72 65 50 50 35 48 55 57 70 88 95 89 98 89
78 71 69 74 72 74 79 86 83 79 76 76 77 54 53 59 60 59 68 98 95 60 56 39 44 55 64 53 53 54 62 69 53 49 61 73 79 46 32 60 87 93 86 92 89 92 77
73 74 78 80 86 82 74 80 83 83 81 78 76 58 63 47 51 60 89 96 78 60 47 63 62 68 70 55 55 59 62 62 52 50 54 65 60 37 34 37 59 80 95 56 80 56 56
79 84 92 89 89 89 84 82 83 83 84 83 80 62 62 50 42 59 96 74 70 55 53 58 92 76 84 74 66 61 64 50 54 42 40 38 55 40 41 34 39 52 60 83 98 95 53
72 74 72 77 85 87 90 88 82 87 87 89 71 87 35 42 42 89 96 96 63 51 60 62 68 92 79 94 82 79 51 42 43 44 38 38 47 50 46 49 46 54 61 53 80 72 66
87 82 70 70 76 84 87 86 86 88 88 83 82 95 33 43 90 92 87 82 73 93 71 63 62 61 67 63 100 84 87 56 35 38 48 40 48 75 51 42 38 40 46 40 60 69 66
85 80 72 67 78 87 90 90 85 86 88 95 98 92 41 57 96 89 91 62 58 68 75 87 73 56 60 73 93 88 60 45 45 40 41 36 61 82 62 52 45 48 40 36 47 56 53
82 77 74 75 74 88 90 90 85 85 89 92 100 97 76 79 89 93 88 66 60 47 50 95 92 75 77 76 67 96 80 55 49 43 50 36 53 52 58 52 52 52 48 41 46 73 57
81 74 70 67 71 84 88 84 84 86 89 90 100 93 81 91 81 84 79 82 74 60 43 69 79 60 95 90 77 66 65 66 59 60 45 42 56 49 46 40 44 41 41 44 59 40 49
84 78 75 72 76 80 86 84 84 81 83 94 97 98 90 95 79 81 73 82 76 67 62 63 50 63 52 63 70 93 80 72 78 74 87 52 64 47 54 41 42 40 40 41 38 40 35
83 80 76 76 76 79 82 81 84 84 86 99 86 86 98 85 79 84 80 79 74 64 58 49 55 59 65 56 44 68 73 73 78 90 89 82 77 73 57 53 49 63 47 41 41 34 38
74 76 75 72 75 79 79 84 82 80 83 85 99 100 99 90 93 83 68 69 75 72 82 61 54 69 62 42 53 61 62 66 73 85 76 91 71 83 83 59 70 37 38 32 37 34 32
73 75 73 76 83 83 85 85 81 76 74 76 79 92 100 92 87 76 73 71 81 79 74 69 57 49 45 65 86 92 71 92 86 87 70 55 62 81 78 75 53 37 38 44 44 43 33
72 73 72 81 83 83 83 84 83 82 76 77 75 74 94 98 80 73 81 76 86 94 83 65 52 49 66 83 88 94 82 76 100 75 64 61 50 60 87 68 66 34 36 38 32 42 41
76 78 78 78 76 78 82 84 84 80 75 81 80 75 95 98 90 77 91 92 70 87 92 82 81 74 57 83 92 89 79 66 95 76 79 72 74 77 80 69 55 39 42 39 49 40 44
72 77 78 75 76 81 83 85 80 72 71 76 80 75 92 99 87 82 69 80 80 90 93 74 82 84 94 96 96 95 84 78 78 58 60 72 80 82 78 81 62 53 44 47 54 63 47
67 72 71 77 80 82 86 86 84 71 68 72 79 72 74 94 83 62 62 61 63 64 78 78 85 78 90 96 96 96 90 92 75 83 58 66 46 68 60 62 55 54 55 53 57 63 63
Wind_Speed
18 17 18 18 19 20 20 19 20 19 19 21 21 19 21 21 22 21 21 19 19 17 16 15 13 10 4 4 10 13 12 7 17 17 14 10 7 5 6 7 8 11 4 13 16 17 12
17 17 17 18 20 20 21 22 23 22 22 22 22 23 22 23 22 23 22 20 19 18 17 15 12 8 4 10 11 9 13 8 12 18 11 10 7 9 5 8 9 4 12 6 15 20 21
17 18 18 18 19 20 21 20 21 23 23 24 23 24 26 26 26 24 24 24 23 20 17 15 11 8 7 18 10 2 15 12 11 18 5 12 12 3 2 3 2 6 10 3 4 12 10
17 17 17 18 19 20 21 21 22 22 23 23 23 25 25 25 27 27 28 28 27 27 19 14 9 8 9 16 16 22 14 12 11 16 15 8 5 5 3 5 5 5 5 9 8 11 6
16 17 18 19 19 20 21 22 23 23 24 25 25 27 28 27 28 29 31 33 33 26 16 10 6 7 8 8 20 24 24 13 13 9 8 2 7 4 3 4 2 4 5 8 7 20 8
16 17 17 19 19 20 21 22 24 25 25 26 27 29 29 30 32 32 33 30 28 11 7 6 11 3 8 9 7 21 23 22 7 6 3 3 3 5 6 7 13 11 10 7 11 14 13
14 15 16 17 18 20 21 22 24 25 26 28 29 30 30 32 34 38 34 14 5 1 6 10 9 6 5 22 9 11 23 17 7 5 6 6 6 14 19 17 4 4 2 7 6 11 13
15 16 17 19 20 21 23 24 24 25 26 28 29 30 32 34 38 32 12 3 5 7 10 16 24 21 28 4 5 6 21 8 9 10 7 3 17 12 7 9 8 9 6 7 4 9 16
15 16 18 18 20 21 21 23 24 25 26 28 30 31 33 34 35 8 19 10 19 20 5 11 19 15 22 22 12 12 19 9 13 13 18 14 7 20 18 15 15 14 12 7 5 3 12
16 17 18 18 19 20 22 23 25 26 27 30 31 33 34 37 12 26 15 19 22 24 5 8 6 8 9 7 10 15 26 14 7 19 15 14 19 6 15 18 14 15 11 11 8 6 6
17 18 20 20 21 22 22 23 24 26 27 29 31 34 33 33 19 6 19 28 30 5 4 6 4 2 8 17 4 15 33 10 13 10 10 10 14 21 20 21 13 8 4 8 10 12 6
18 19 19 20 21 21 21 22 24 25 27 28 32 38 40 26 17 23 15 23 10 2 10 6 2 2 6 14 4 3 15 6 5 7 12 20 5 15 13 18 17 8 5 9 5 4 4
20 21 21 22 23 24 24 24 24 26 27 29 31 38 44 21 7 18 21 9 2 7 5 4 3 4 5 9 12 2 16 20 11 11 13 10 20 4 6 16 11 5 11 3 3 3 7
21 22 23 24 23 25 26 25 25 25 27 28 32 40 34 27 20 17 12 3 10 7 10 3 4 3 6 6 5 6 12 16 19 6 5 7 6 20 7 10 10 18 11 5 7 6 5
23 24 24 25 25 24 25 25 25 25 26 27 31 33 26 17 22 9 3 9 5 5 5 9 10 3 6 8 6 9 12 17 15 19 8 8 7 4 11 5 15 8 9 9 3 3 2
25 27 25 25 25 24 24 24 25 24 24 25 23 15 15 5 25 7 4 15 7 5 14 8 6 5 5 6 7 13 11 9 19 21 19 4 3 4 1 5 4 16 13 5 3 3 4
25 26 27 27 27 24 25 24 24 24 23 23 10 4 13 12 24 1 5 5 8 11 11 8 8 7 10 7 5 9 7 9 20 22 24 5 4 3 8 10 16 4 13 5 6 4 2
24 24 27 27 28 26 25 24 23 22 21 12 3 2 21 28 3 3 4 8 9 10 11 8 7 11 12 16 7 7 6 8 4 13 26 26 2 4 9 2 7 5 5 16 7 6 8
24 26 28 28 27 27 25 22 22 20 18 12 2 3 15 4 2 3 7 12 7 15 14 7 8 6 10 16 8 11 5 7 14 6 12 16 5 2 2 5 4 10 14 21 3 3 9
25 27 27 28 28 27 23 21 21 21 17 13 2 3 4 3 1 3 5 7 12 9 13 8 10 10 12 9 8 6 8 10 16 17 16 15 8 10 10 5 6 6 7 6 6 4 6
24 26 28 30 27 28 24 22 22 21 16 9 2 3 4 4 4 5 2 5 12 12 7 6 5 16 9 5 14 4 10 19 16 18 11 15 13 11 8 4 4 5 16 19 9 17 8
26 27 28 28 27 27 24 22 21 20 18 6 2 2 3 3 4 6 5 3 12 7 7 13 11 19 17 13 12 22 17 13 11 7 11 10 7 15 7 3 7 5 13 14 23 12 16
27 27 28 28 28 27 25 24 22 19 15 5 6 8 3 5 2 3 5 5 8 12 7 7 15 14 18 20 14 12 14 21 20 21 17 8 3 5 6 6 6 6 14 20 15 18 11
29 29 29 28 27 27 26 24 22 19 17 15 8 5 3 6 6 5 8 11 14 10 12 13 12 12 8 17 16 15 20 23 20 22 19 12 9 3 4 5 9 10 12 14 20 17 18
28 28 27 28 27 26 25 23 23 21 19 20 21 5 3 7 4 8 12 9 8 10 15 12 16 13 8 12 7 6 7 5 12 18 19 13 9 4 5 5 5 4 4 10 13 18 18
29 28 28 28 27 26 24 24 23 22 23 22 22 18 5 5 6 11 6 10 11 7 6 8 10 8 4 4 3 5 6 6 6 5 11 6 12 10 3 11 17 2 3 3 3 12 13
27 27 28 26 26 26 25 25 22 21 21 19 22 16 7 4 3 5 4 3 4 3 5 7 4 5 10 4 6 7 7 7 8 12 7 8 3 13 8 6 6 3 4 3 9 6 5
28 28 28 28 27 26 26 25 22 20 21 19 17 14 9 2 5 9 12 12 6 3 9 6 8 2 3 4 4 2 7 9 4 9 13 10 8 6 2 3 6 4 3 6 3 6 5
27 28 29 29 29 28 28 26 23 23 22 19 20 18 14 3 7 28 34 33 23 27 13 7 8 5 3 3 3 3 7 6 3 6 1 6 9 6 6 5 2 4 3 5 2 4 6
Wind_Direction
15 11 15 12 9 7 4 357 355 351 351 356 359 348 340 339 340 340 339 330 319 308 298 294 293 299 281 227 249 245 283 195 197 205 217 224 239 213 213 195 241 238 247 183 164 179 218
18 12 3 6 4 359 357 357 353 348 345 345 345 342 332 341 332 332 334 332 324 309 299 292 288 286 234 253 245 267 225 179 186 188 214 231 237 214 269 222 216 242 236 213 191 180 194
16 13 10 7 7 2 359 359 359 354 353 345 335 334 333 331 331 336 327 323 319 312 295 286 278 252 240 238 221 177 195 193 196 193 187 223 255 292 341 245 233 236 245 96 194 203 203
15 16 14 11 6 5 2 358 355 352 352 351 347 347 338 330 326 328 323 318 311 309 288 272 261 249 252 254 258 238 208 208 208 211 207 222 242 255 190 308 350 297 193 211 168 163 169
17 13 8 5 3 359 357 356 354 353 351 350 347 344 343 338 334 325 312 312 311 303 276 254 240 207 258 264 233 227 217 186 209 208 198 229 140 234 197 158 13 267 216 197 168 184 154
17 13 9 5 4 2 359 356 353 351 349 347 342 338 339 336 333 328 323 307 304 274 267 213 242 231 264 233 221 213 220 185 173 156 79 121 211 177 225 174 208 200 202 206 190 187 175
14 13 8 7 2 2 359 357 354 351 348 345 342 341 339 336 330 324 324 335 350 19 233 198 195 216 276 210 176 194 197 170 155 153 176 190 199 214 198 218 11 317 240 225 215 175 176
12 10 7 4 0 357 355 353 351 349 347 342 340 338 336 335 327 328 340 237 315 304 285 244 251 238 256 174 193 189 184 160 180 201 159 167 223 215 241 217 215 257 270 285 266 180 192
2 1 360 357 354 352 350 348 348 346 346 343 341 338 337 333 332 358 334 279 346 342 266 257 225 233 226 222 224 192 171 177 191 197 190 203 169 212 207 218 207 220 233 234 250 116 206
353 352 350 349 345 344 342 342 342 341 340 338 336 334 336 341 344 331 302 336 346 339 280 281 216 252 201 175 239 208 181 171 205 206 196 226 234 227 208 215 200 214 214 251 244 148 213
348 346 343 341 339 338 338 339 338 337 337 336 334 329 330 333 291 272 298 318 329 313 306 252 221 309 153 176 152 203 182 197 196 172 179 215 193 209 221 230 201 223 157 292 253 208 337
338 336 336 335 335 333 333 333 334 333 333 333 330 324 326 330 302 286 325 327 325 223 247 278 148 171 128 199 232 50 170 197 188 222 212 213 229 201 214 222 215 141 133 246 110 90 224
333 330 329 328 328 328 328 330 331 333 332 332 331 323 320 314 266 297 307 331 209 221 273 238 228 190 197 195 221 206 183 201 198 199 211 213 226 218 175 203 185 127 120 219 98 177 235
327 324 325 324 323 325 323 327 323 324 328 330 330 326 321 317 303 286 283 238 232 207 231 295 29 189 191 159 220 211 190 205 227 236 171 184 212 204 175 199 177 171 168 175 175 190 227
321 321 319 317 317 316 322 324 325 323 325 329 330 326 314 326 7 282 172 222 231 200 267 5 346 221 213 213 189 197 212 215 215 225 213 182 235 146 169 171 152 172 201 195 19 238 140
322 321 320 322 319 317 320 320 320 321 322 330 329 311 292 334 342 339 189 232 261 294 321 347 316 296 325 324 238 188 189 217 221 221 234 263 211 201 162 128 177 173 168 179 140 229 205
321 323 325 322 320 321 317 317 318 319 323 331 320 331 284 305 327 182 270 225 260 269 312 300 298 302 278 300 238 279 229 228 200 207 218 216 157 268 134 203 196 163 172 160 156 221 202
321 321 323 321 321 318 318 316 318 321 324 333 289 302 295 315 357 285 285 342 352 335 317 286 265 273 262 279 269 259 223 290 305 211 204 217 172 175 205 230 192 247 219 185 172 197 219
322 322 323 321 318 320 317 316 318 318 323 320 248 249 295 271 272 324 9 339 339 344 329 317 299 293 309 295 290 266 323 286 311 280 205 209 211 91 63 327 249 207 209 199 155 99 194
323 324 322 320 319 321 317 313 311 313 317 317 267 305 299 21 83 119 339 318 322 325 316 336 320 339 351 327 317 285 283 302 315 310 271 184 188 209 206 206 150 222 209 217 175 150 179
321 319 321 318 318 319 315 315 315 315 309 319 223 241 199 287 302 304 268 288 295 308 320 351 311 317 351 301 315 22 344 332 309 311 282 225 208 200 227 185 209 224 200 191 203 214 195
320 318 320 318 318 318 317 316 314 312 306 257 218 241 319 255 279 286 312 257 280 283 325 308 292 320 308 290 286 298 316 310 284 314 345 306 238 211 234 148 209 222 212 211 217 212 240
321 321 317 318 317 316 317 315 312 313 310 242 234 263 223 220 214 219 257 240 277 303 296 298 307 302 295 293 291 278 279 274 262 270 285 271 250 141 217 153 86 294 204 208 220 225 194
322 322 322 322 318 316 314 312 309 308 305 289 256 241 231 264 221 210 256 275 284 286 278 294 293 288 267 300 300 282 270 256 246 240 231 255 286 295 156 107 205 259 181 199 206 224 209
323 322 320 320 319 316 314 312 307 306 305 298 291 255 258 276 238 253 254 261 290 279 284 281 284 273 291 313 284 313 284 224 219 224 220 213 241 233 183 220 305 250 192 177 180 231 216
326 324 320 320 319 318 317 314 310 308 308 300 288 277 236 281 245 233 252 274 276 269 283 246 269 267 260 273 256 233 250 198 188 174 184 168 221 217 162 210 229 177 236 202 101 249 195
329 326 324 322 320 319 317 314 310 311 313 307 295 293 257 250 238 229 221 226 218 242 267 279 269 268 240 222 227 228 237 249 169 189 167 176 160 209 217 210 268 275 260 295 165 244 195
328 331 331 328 324 320 317 313 311 308 307 312 298 300 266 269 269 232 256 259 266 214 264 269 321 270 235 242 256 254 257 217 134 180 168 164 181 196 152 106 268 15 308 198 286 310 186
326 328 329 328 327 321 319 314 311 309 306 308 299 298 293 230 252 275 267 262 247 253 261 247 238 269 271 287 258 282 291 296 185 170 118 158 179 170 176 185 307 329 340 331 48 78 94